International Virtual Aviation Organisation

Russian Federation and Kazakhstan MCD

 

Карточка аэропорта UUDL

Внимание!
Информация на этой странице в стадии наполнения.
Если вы не увидели какой-то информации, или заметили неточность - пожалуйста сообщите нам!
Спасибо!
Команда RU-STAFF
Название аэропортаТуношна
Название аэропорта (англ.)Tunoshna
Превышение305 ft. (93 m.)
Координаты57°33.636', 40°9.438'
Высота перехода700m
Эшелон переходаFL050
Коды ответчика2750-2757
Зона ОрВДМосква РПИ (UUWV)
Данные METARUUDL 131130Z 19003MPS 9999 OVC042 01/M03 Q1018 R23/010060 NOSIG RMK QFE755
Проноз погоды (TAF)UUDL 130758Z 1309/1409 17003G08MPS 8000 BKN020 TX01/1309Z TNM02/1323Z TEMPO 1312/1406 4000 -SN BKN011
NOTAMshow/hide NOTAM
AWOS   TABLE

Информация о ВПП

ВПП Длина ВПП (м.) Покрытие Курс ВПП Частота ILS
053000Асфальтобетон52 
233000Асфальтобетон232110.5

Диспетчерские позиции

Позывной Наименование органа УВД Частота
UUDL_APPЯрославль - Подход120.300



Спутниковое изображение